KN4QQN Weather Reports


time (UTC)temp
F
wind
direction
speed
knots
gust
knots
rain 1hr
in
rain 24hr
in
rain mn
in
humidity
%
barometer
mb
20260508030028 54 222 0.0 1.7 0.00 0.00 0.00 93
20260508025028 55 0.0 0.0 0.00 0.00 0.00 93
20260508024028 55 231 0.0 1.7 0.00 0.00 0.00 93
20260508023028 55 197 0.0 1.7 0.00 0.00 0.00 93
20260508022048 55 209 0.0 1.7 0.00 0.00 0.00 93
20260508021028 55 227 0.9 1.7 0.00 0.00 0.00 93
20260508020028 55 216 0.0 1.7 0.00 0.00 0.00 93
20260508015028 55 215 0.9 2.6 0.00 0.00 0.00 93
20260508014028 55 196 0.0 0.9 0.00 0.00 0.00 93
20260508013028 55 106 0.9 1.7 0.00 0.00 0.00 93
20260508012029 55 89 0.9 1.7 0.00 0.00 0.00 92
20260508011028 55 92 0.0 0.9 0.00 0.00 0.00 92
20260508010028 55 236 0.9 2.6 0.00 0.00 0.00 92
20260508005028 55 125 0.9 1.7 0.00 0.00 0.00 92
20260508004028 55 217 0.0 0.9 0.00 0.00 0.00 92
20260508003028 55 95 0.0 1.7 0.00 0.00 0.00 92
20260508002048 55 152 0.0 1.7 0.00 0.00 0.00 92
20260508001028 55 108 0.9 3.5 0.00 0.00 0.00 92
20260508000108 55 97 0.9 3.5 0.00 0.00 0.00 91
20260507235028 55 102 1.7 3.5 0.00 0.00 0.00 91
20260507234028 56 130 1.7 2.6 0.00 0.00 0.00 91
20260507233028 56 118 1.7 2.6 0.00 0.00 0.00 90
20260507232028 56 222 0.0 1.7 0.00 0.00 0.00 90
20260507231028 57 174 0.9 1.7 0.00 0.00 0.00 90
20260507230028 57 179 1.7 4.3 0.00 0.00 0.00 89
20260507225028 57 188 0.9 1.7 0.00 0.00 0.00 89
20260507224028 57 78 2.6 4.3 0.00 0.00 0.00 88
20260507223048 57 81 2.6 5.2 0.00 0.00 0.00 88
20260507222028 57 111 2.6 7.0 0.00 0.00 0.00 88
20260507221028 56 122 2.6 5.2 0.00 0.00 0.00 89
20260507220028 56 154 1.7 4.3 0.00 0.00 0.00 89
20260507215028 56 103 2.6 5.2 0.00 0.00 0.00 89
20260507214028 57 120 1.7 5.2 0.00 0.00 0.00 90
20260507213028 56 113 3.5 7.0 0.00 0.00 0.00 90
20260507212028 56 165 1.7 3.5 0.00 0.00 0.00 92
20260507211029 56 98 2.6 5.2 0.00 0.00 0.00 92
20260507210108 56 139 2.6 5.2 0.00 0.00 0.00 93
20260507205028 56 52 2.6 6.1 0.00 0.00 0.00 93
20260507204028 56 99 1.7 5.2 0.00 0.00 0.00 93
20260507203029 56 135 2.6 5.2 0.00 0.00 0.00 92
20260507202029 56 138 2.6 7.0 0.00 0.00 0.00 93
20260507201028 56 139 4.3 8.7 0.00 0.00 0.00 92
20260507200028 57 177 3.5 6.1 0.00 0.00 0.00 92
20260507195028 57 95 2.6 6.1 0.00 0.00 0.00 92
20260507194029 57 94 4.3 7.0 0.00 0.00 0.00 93
20260507193048 57 110 3.5 7.0 0.00 0.00 0.00 94
20260507192028 57 109 2.6 5.2 0.00 0.00 0.00 94
20260507191028 57 125 1.7 4.3 0.00 0.00 0.00 94
20260507190028 57 190 1.7 3.5 0.00 0.00 0.00 94
20260507185030 57 107 2.6 5.2 0.00 0.00 0.00 95
20260507184028 57 123 2.6 5.2 0.00 0.00 0.00 94
20260507182028 57 123 3.5 7.0 0.00 0.00 0.00 94
20260507181028 57 91 3.5 7.8 0.00 0.00 0.00 95
20260507180028 58 118 4.3 7.8 0.00 0.00 0.00 95
20260507175028 58 130 2.6 5.2 0.00 0.00 0.00 95
20260507174018 58 133 3.5 6.1 0.00 0.00 0.00 95
20260507173018 58 19 2.6 7.0 0.00 0.00 0.00 94
20260507172018 59 129 3.5 7.0 0.00 0.00 0.00 94
20260507171019 60 114 3.5 6.1 0.00 0.00 0.00 92
20260507170058 62 120 4.3 7.8 0.00 0.00 0.00 90
20260507165018 67 93 4.3 7.8 0.00 0.00 0.00 91
20260507164018 68 134 0.9 2.6 0.00 0.00 0.00 95
20260507163018 68 131 0.9 2.6 0.00 0.00 0.00 95
20260507162019 67 255 1.7 4.3 0.00 0.00 0.00 94
20260507161018 67 119 0.9 2.6 0.00 0.00 0.00 94
20260507160019 68 193 0.9 3.5 0.00 0.00 0.00 95
20260507155019 68 212 0.9 1.7 0.00 0.00 0.00 95
20260507154018 68 172 0.0 0.9 0.00 0.00 0.00 95
20260507153019 68 231 0.0 1.7 0.00 0.00 0.00 96
20260507152038 68 175 0.0 1.7 0.00 0.00 0.00 96
20260507151038 68 185 0.0 1.7 0.00 0.00 0.00 96
20260507150019 68 278 0.9 1.7 0.00 0.00 0.00 96
20260507145019 68 0.0 0.9 0.00 0.00 0.00 96
20260507144019 68 157 0.0 0.9 0.00 0.00 0.00 96
20260507143018 68 0.0 0.0 0.00 0.00 0.00 96
20260507142019 68 0.0 0.0 0.00 0.00 0.00 96
20260507141019 68 205 0.0 1.7 0.00 0.00 0.00 96
20260507140019 68 169 0.0 0.9 0.00 0.00 0.00 97
20260507135019 68 132 0.0 3.5 0.00 0.00 0.00 97
20260507134019 67 188 0.0 0.9 0.00 0.00 0.00 97
20260507133020 67 243 0.9 3.5 0.00 0.00 0.00 97
20260507132019 67 233 0.0 2.6 0.00 0.00 0.00 97
20260507131018 67 229 0.0 2.6 0.00 0.00 0.00 97
20260507130019 66 166 0.0 1.7 0.00 0.00 0.00 97
20260507125019 66 145 0.0 1.7 0.00 0.00 0.00 97
20260507124019 66 182 0.0 1.7 0.00 0.00 0.00 97
20260507123019 66 0.0 0.0 0.00 0.00 0.00 97
20260507122018 66 0.0 0.0 0.00 0.00 0.00 97
20260507121039 66 160 0.0 0.9 0.00 0.00 0.00 97
20260507120019 66 0.0 0.0 0.00 0.00 0.00 97
20260507115019 66 0.0 0.0 0.00 0.00 0.00 97
20260507114019 66 0.0 0.0 0.00 0.00 0.00 97
20260507113019 65 0.0 0.0 0.00 0.00 0.00 97
20260507112039 65 123 0.0 1.7 0.00 0.00 0.00 97
20260507111039 65 120 0.0 0.9 0.00 0.00 0.00 97
20260507110019 65 218 0.0 1.7 0.00 0.00 0.00 97
20260507105019 65 147 0.0 1.7 0.00 0.00 0.00 97
20260507104039 65 153 0.0 1.7 0.00 0.00 0.00 97
20260507103019 65 135 0.0 0.9 0.00 0.00 0.00 97
20260507102019 65 155 0.0 0.9 0.00 0.00 0.00 97
20260507101019 65 0.0 0.0 0.00 0.00 0.00 96
20260507100019 64 195 0.0 1.7 0.00 0.00 0.00 96
20260507095019 64 256 0.9 1.7 0.00 0.00 0.00 96
20260507094019 64 0.0 0.0 0.00 0.00 0.00 96
20260507093019 64 0.0 0.0 0.00 0.00 0.00 96
20260507092019 64 0.0 0.0 0.00 0.00 0.00 96
20260507091019 64 0.0 0.0 0.00 0.00 0.00 96
20260507090019 64 0.0 0.0 0.00 0.00 0.00 96
20260507085039 65 0.0 0.0 0.00 0.00 0.00 96
20260507084019 65 103 0.0 1.7 0.00 0.00 0.00 96
20260507083019 65 111 0.0 1.7 0.00 0.00 0.00 96
20260507082019 65 133 0.0 0.9 0.00 0.00 0.00 96
20260507081019 65 0.0 0.9 0.00 0.00 0.00 96
20260507080019 65 0.0 0.0 0.00 0.00 0.00 96
20260507075019 65 0.0 0.0 0.00 0.00 0.00 96
20260507074019 65 136 0.0 0.9 0.00 0.00 0.00 95
20260507073019 65 0.0 0.0 0.00 0.00 0.00 95
20260507072019 65 0.0 0.0 0.00 0.00 0.00 95
20260507071019 65 0.0 0.0 0.00 0.00 0.00 95
20260507070039 65 0.0 0.0 0.00 0.00 0.00 95
20260507065019 65 0.0 0.0 0.00 0.00 0.00 95
20260507064019 65 0.0 0.0 0.00 0.00 0.00 95
20260507063019 65 0.0 0.9 0.00 0.00 0.00 95
20260507062019 65 0.0 0.0 0.00 0.00 0.00 94
20260507061019 65 159 0.0 1.7 0.00 0.00 0.00 94
20260507060019 65 0.0 0.9 0.00 0.00 0.00 94
20260507055039 65 0.0 0.0 0.00 0.00 0.00 94
20260507054019 65 0.0 0.0 0.00 0.00 0.00 94
20260507053019 65 208 0.9 1.7 0.00 0.00 0.00 93
20260507052019 66 0.0 0.9 0.00 0.00 0.00 93
20260507051019 66 140 0.0 2.6 0.00 0.00 0.00 92
20260507050039 66 188 0.9 2.6 0.00 0.00 0.00 92
20260507045019 66 144 0.9 2.6 0.00 0.00 0.00 91
20260507044019 67 129 0.9 2.6 0.00 0.00 0.00 90
20260507043019 67 209 0.9 2.6 0.00 0.00 0.00 89
20260507042019 68 183 0.9 2.6 0.00 0.00 0.00 87
20260507041019 68 180 1.7 3.5 0.00 0.00 0.00 86
20260507040039 68 268 0.9 2.6 0.00 0.00 0.00 87
20260507035039 68 0.0 0.0 0.00 0.00 0.00 86
20260507034019 69 220 0.0 0.9 0.00 0.00 0.00 84
20260507033019 69 167 0.0 1.7 0.00 0.00 0.00 82
20260507032020 70 129 0.9 1.7 0.00 0.00 0.00 81
20260507031019 71 202 0.9 1.7 0.00 0.00 0.00 79